EW1689 Weather Reports


Display with metric or nautical units.
time (UTC)temp
F
wind
direction
speed
MPH
gust
MPH
rain 1hr
in
rain 24hr
in
rain mn
in
humidity
%
barometer
mb
20200711203405 111 206 1.0 6.0 0.00 0.00 0.00 18 1010.7
20200711201905 111 265 4.0 8.0 0.00 0.00 0.00 18 1010.8
20200711200406 110 158 1.0 5.0 0.00 0.00 0.00 18 1011.0
20200711194905 110 188 2.0 4.0 0.00 0.00 0.00 19 1011.4
20200711193405 109 270 1.0 6.0 0.00 0.00 0.00 20 1011.6
20200711191905 108 165 1.0 7.0 0.00 0.00 0.00 20 1011.8
20200711190405 106 160 2.0 7.0 0.00 0.00 0.00 22 1012.3
20200711184905 105 174 2.0 8.0 0.00 0.00 0.00 22 1012.6
20200711183405 103 188 2.0 6.0 0.00 0.00 0.00 23 1012.7
20200711181905 103 201 1.0 8.0 0.00 0.00 0.00 23 1012.9
20200711180406 103 196 2.0 8.0 0.00 0.00 0.00 24 1013.1
20200711174905 103 223 1.0 8.0 0.00 0.00 0.00 23 1013.1
20200711173405 103 236 5.0 7.0 0.00 0.00 0.00 22 1013.2
20200711171905 102 184 6.0 6.0 0.00 0.00 0.00 22 1013.1
20200711170405 101 221 1.0 7.0 0.00 0.00 0.00 23 1013.2
20200711164905 100 176 2.0 8.0 0.00 0.00 0.00 23 1013.2
20200711163405 100 157 1.0 7.0 0.00 0.00 0.00 24 1013.2
20200711161905 99 182 1.0 5.0 0.00 0.00 0.00 24 1013.1
20200711160405 99 210 3.0 4.0 0.00 0.00 0.00 25 1013.2
20200711154905 98 138 1.0 5.0 0.00 0.00 0.00 25 1013.3
20200711153405 99 142 0.0 4.0 0.00 0.00 0.00 25 1013.4
20200711151905 97 296 0.0 2.0 0.00 0.00 0.00 26 1013.3
20200711150405 96 296 0.0 1.0 0.00 0.00 0.00 27 1013.2
20200711144905 95 232 0.0 1.0 0.00 0.00 0.00 29 1013.2
20200711143405 92 232 0.0 1.0 0.00 0.00 0.00 30 1013.0
20200711141905 91 232 0.0 1.0 0.00 0.00 0.00 31 1012.9
20200711140405 90 229 0.0 2.0 0.00 0.00 0.00 32 1013.0
20200711134905 89 239 0.0 2.0 0.00 0.00 0.00 33 1013.0
20200711133405 87 282 0.0 3.0 0.00 0.00 0.00 35 1012.9
20200711131905 87 246 0.0 1.0 0.00 0.00 0.00 35 1012.8
20200711130405 87 246 0.0 1.0 0.00 0.00 0.00 35 1012.8
20200711124905 86 245 0.0 2.0 0.00 0.00 0.00 35 1012.6
20200711123405 86 197 0.0 1.0 0.00 0.00 0.00 36 1012.6
20200711121905 86 205 0.0 1.0 0.00 0.00 0.00 36 1012.5
20200711120406 87 205 0.0 2.0 0.00 0.00 0.00 35 1012.2
20200711114905 88 205 0.0 1.0 0.00 0.00 0.00 33 1011.9
20200711113405 89 205 0.0 3.0 0.00 0.00 0.00 33 1011.9
20200711111905 89 161 0.0 4.0 0.00 0.00 0.00 33 1011.8
20200711110405 89 206 3.0 4.0 0.00 0.00 0.00 33 1011.7
20200711104905 90 184 2.0 5.0 0.00 0.00 0.00 32 1011.8
20200711103405 90 188 3.0 11.0 0.00 0.00 0.00 31 1011.7
20200711101905 91 128 6.0 11.0 0.00 0.00 0.00 29 1011.6
20200711100405 91 131 3.0 4.0 0.00 0.00 0.00 28 1011.3
20200711094905 90 169 0.0 2.0 0.00 0.00 0.00 29 1010.9
20200711093405 91 170 0.0 0.0 0.00 0.00 0.00 29 1010.8
20200711091905 91 170 0.0 1.0 0.00 0.00 0.00 29 1010.9
20200711090405 91 170 0.0 1.0 0.00 0.00 0.00 29 1010.8
20200711084905 92 170 0.0 2.0 0.00 0.00 0.00 28 1011.0
20200711083405 92 164 0.0 1.0 0.00 0.00 0.00 28 1011.0
20200711081905 92 164 1.0 1.0 0.00 0.00 0.00 28 1011.1
20200711080405 93 164 0.0 1.0 0.00 0.00 0.00 27 1011.4
20200711074905 94 164 1.0 3.0 0.00 0.00 0.00 26 1011.2
20200711073405 95 184 0.0 1.0 0.00 0.00 0.00 25 1011.0
20200711071905 95 184 0.0 1.0 0.00 0.00 0.00 25 1011.0
20200711070405 96 184 0.0 1.0 0.00 0.00 0.00 25 1011.1
20200711064905 96 184 0.0 2.0 0.00 0.00 0.00 24 1011.1
20200711063405 96 184 0.0 1.0 0.00 0.00 0.00 25 1011.2
20200711061905 97 184 0.0 1.0 0.00 0.00 0.00 24 1011.4
20200711060405 98 184 0.0 3.0 0.00 0.00 0.00 23 1011.2
20200711054906 99 198 0.0 5.0 0.00 0.00 0.00 22 1011.2
20200711053405 100 133 2.0 4.0 0.00 0.00 0.00 21 1011.3
20200711051905 101 98 0.0 6.0 0.00 0.00 0.00 21 1011.2
20200711050405 101 263 2.0 7.0 0.00 0.00 0.00 20 1010.8
20200711044905 101 285 2.0 7.0 0.00 0.00 0.00 20 1010.6
20200711043405 102 101 1.0 10.0 0.00 0.00 0.00 20 1010.7
20200711041905 102 69 2.0 7.0 0.00 0.00 0.00 20 1010.6
20200711040405 102 203 1.0 7.0 0.00 0.00 0.00 20 1010.6
20200711034905 102 265 2.0 7.0 0.00 0.00 0.00 20 1010.5
20200711033405 102 285 2.0 9.0 0.00 0.00 0.00 19 1010.2
20200711031905 102 355 2.0 7.0 0.00 0.00 0.00 20 1009.9
20200711030405 103 190 1.0 6.0 0.00 0.00 0.00 19 1009.9
20200711024905 103 197 1.0 8.0 0.00 0.00 0.00 19 1009.8
20200711023405 104 270 5.0 8.0 0.00 0.00 0.00 19 1009.9
20200711021905 104 166 1.0 7.0 0.00 0.00 0.00 19 1009.9
20200711020405 105 215 1.0 7.0 0.00 0.00 0.00 18 1009.9
20200711014905 105 189 3.0 7.0 0.00 0.00 0.00 18 1009.8
20200711013405 105 272 2.0 8.0 0.00 0.00 0.00 18 1009.8
20200711011905 106 261 3.0 9.0 0.00 0.00 0.00 18 1009.8
20200711010405 106 245 3.0 10.0 0.00 0.00 0.00 18 1009.8
20200711004905 107 277 3.0 7.0 0.00 0.00 0.00 19 1009.9
20200711003405 107 106 2.0 8.0 0.00 0.00 0.00 19 1009.9
20200711001905 108 275 1.0 5.0 0.00 0.00 0.00 19 1010.1
20200711000405 108 109 1.0 6.0 0.00 0.00 0.00 19 1010.2
20200710234905 108 167 1.0 7.0 0.00 0.00 0.00 18 1010.3
20200710233405 108 180 3.0 6.0 0.00 0.00 0.00 18 1010.5
20200710231905 109 142 1.0 9.0 0.00 0.00 0.00 19 1010.6
20200710230405 109 302 2.0 9.0 0.00 0.00 0.00 18 1010.9
20200710224905 110 250 3.0 7.0 0.00 0.00 0.00 19 1011.1
20200710223405 110 103 3.0 7.0 0.00 0.00 0.00 19 1011.2
20200710221905 110 261 2.0 8.0 0.00 0.00 0.00 19 1011.5
20200710220405 111 295 2.0 7.0 0.00 0.00 0.00 19 1011.5
20200710214905 110 157 2.0 7.0 0.00 0.00 0.00 19 1011.8
20200710213405 110 298 1.0 8.0 0.00 0.00 0.00 19 1012.0
20200710211905 109 340 1.0 7.0 0.00 0.00 0.00 20 1012.3
20200710210405 109 250 2.0 9.0 0.00 0.00 0.00 19 1012.5
20200710204905 109 187 1.0 7.0 0.00 0.00 0.00 19 1012.5